Location: Unspecified
(0.0000°N, 0.0000°E)
Time: 05:06:11
(UTC+00:00)

Transit 4A - Pass Details

Date: 21 December 2018
Orbit: 862 x 983 km, 66.8° (Epoch: 17 June)

Event Time Altitude Azimuth Distance (km) Brightness Sun altitude
Rises 12:15:04 0° 343° (NNW) 3,606 10.8 66.2°
Reaches altitude 10° 12:17:35 10° 345° (NNW) 2,678 10.2 66.1°
Maximum altitude 12:23:52 78° 71° (ENE) 995 9.3 65.7°
Drops below altitude 10° 12:30:17 10° 157° (SSE) 2,733 10.8 65.3°
Sets 12:32:52 0° 158° (SSE) 3,685 11.3 65.1°
